Time,TemperatureF,DewpointF,PressureIn,WindDirection,WindDirectionDegrees,WindSpeedMPH,WindSpeedGustMPH,Humidity,HourlyPrecipIn,Conditions,Clouds,dailyrainin,SoftwareType,DateUTC
2013-04-28 00:02:00,58.5,45.9,30.10,South,174,3.0,5.0,63,0.00,,,0.00,meteohub,2013-04-28 07:02:00,
2013-04-28 00:22:00,58.3,45.7,30.10,SW,220,0.0,3.0,63,0.00,,,0.00,meteohub,2013-04-28 07:22:00,
2013-04-28 00:42:00,58.5,45.1,30.10,SW,233,3.0,5.0,61,0.00,,,0.00,meteohub,2013-04-28 07:42:00,
2013-04-28 01:02:00,58.8,44.1,30.10,SW,232,0.0,3.0,58,0.00,,,0.00,meteohub,2013-04-28 08:02:00,
2013-04-28 01:22:00,59.2,43.0,30.10,WSW,238,0.0,5.0,55,0.00,,,0.00,meteohub,2013-04-28 08:22:00,
2013-04-28 01:42:00,59.2,42.1,30.10,SW,217,2.0,4.0,53,0.00,,,0.00,meteohub,2013-04-28 08:42:00,
2013-04-28 02:02:00,59.4,41.7,30.10,SW,236,3.0,4.0,52,0.00,,,0.00,meteohub,2013-04-28 09:02:00,
2013-04-28 02:22:00,59.5,40.8,30.10,South,171,4.0,4.0,50,0.00,,,0.00,meteohub,2013-04-28 09:22:00,
2013-04-28 02:42:00,59.7,40.5,30.10,SSE,166,4.0,5.0,49,0.00,,,0.00,meteohub,2013-04-28 09:42:00,
2013-04-28 03:02:00,59.7,39.9,30.07,South,179,2.0,5.0,48,0.00,,,0.00,meteohub,2013-04-28 10:02:00,
2013-04-28 03:22:00,59.7,39.9,30.07,South,183,5.0,6.0,48,0.00,,,0.00,meteohub,2013-04-28 10:22:00,
2013-04-28 03:42:00,59.7,39.9,30.07,South,181,4.0,5.0,48,0.00,,,0.00,meteohub,2013-04-28 10:42:00,
2013-04-28 04:02:00,59.7,39.4,30.07,South,170,6.0,6.0,47,0.00,,,0.00,meteohub,2013-04-28 11:02:00,
2013-04-28 04:22:00,59.5,39.4,30.07,SSE,155,5.0,7.0,47,0.00,,,0.00,meteohub,2013-04-28 11:22:00,
2013-04-28 04:42:00,59.4,39.2,30.07,South,179,3.0,6.0,47,0.00,,,0.00,meteohub,2013-04-28 11:42:00,
2013-04-28 05:02:00,59.5,39.4,30.07,ESE,104,0.0,4.0,47,0.00,,,0.00,meteohub,2013-04-28 12:02:00,
2013-04-28 05:22:00,59.5,39.4,30.07,SE,138,5.0,6.0,47,0.00,,,0.00,meteohub,2013-04-28 12:22:00,
2013-04-28 05:42:00,59.4,38.7,30.07,SE,135,3.0,4.0,46,0.00,,,0.00,meteohub,2013-04-28 12:42:00,
2013-04-28 06:02:00,59.4,38.7,30.07,SSE,162,0.0,7.0,46,0.00,,,0.00,meteohub,2013-04-28 13:02:00,
2013-04-28 06:22:00,59.2,38.5,30.07,SE,133,0.0,5.0,46,0.00,,,0.00,meteohub,2013-04-28 13:22:00,
2013-04-28 06:42:00,59.4,38.7,30.07,East,92,3.0,4.0,46,0.00,,,0.00,meteohub,2013-04-28 13:42:00,
2013-04-28 07:02:00,59.5,38.7,30.07,ESE,120,0.0,5.0,46,0.00,,,0.00,meteohub,2013-04-28 14:02:00,
2013-04-28 07:22:00,60.1,39.2,30.07,SE,141,4.0,5.0,46,0.00,,,0.00,meteohub,2013-04-28 14:22:00,
2013-04-28 07:42:00,60.1,39.2,30.07,SSW,196,0.0,5.0,46,0.00,,,0.00,meteohub,2013-04-28 14:42:00,
2013-04-28 08:02:00,60.6,39.2,30.07,ENE,75,4.0,5.0,45,0.00,,,0.00,meteohub,2013-04-28 15:02:00,
2013-04-28 08:22:00,61.3,39.2,30.07,ESE,113,2.0,5.0,44,0.00,,,0.00,meteohub,2013-04-28 15:22:00,
2013-04-28 08:42:00,62.1,39.4,30.07,ENE,58,0.0,5.0,43,0.00,,,0.00,meteohub,2013-04-28 15:42:00,
2013-04-28 09:02:00,62.4,38.5,30.07,SE,125,3.0,4.0,41,0.00,,,0.00,meteohub,2013-04-28 16:02:00,
2013-04-28 09:22:00,63.7,38.3,30.04,East,79,0.0,5.0,39,0.00,,,0.00,meteohub,2013-04-28 16:22:00,
2013-04-28 09:42:00,63.9,37.0,30.07,South,174,5.0,5.0,37,0.00,,,0.00,meteohub,2013-04-28 16:42:00,
2013-04-28 10:02:00,64.9,38.1,30.07,SSW,193,4.0,6.0,37,0.00,,,0.00,meteohub,2013-04-28 17:02:00,
2013-04-28 10:22:00,63.7,36.9,30.07,SW,234,8.0,8.0,37,0.00,,,0.00,meteohub,2013-04-28 17:22:00,
2013-04-28 10:42:00,63.9,37.8,30.07,SW,225,8.0,10.0,38,0.00,,,0.00,meteohub,2013-04-28 17:42:00,
2013-04-28 11:02:00,64.0,37.2,30.07,WSW,247,9.0,9.0,37,0.00,,,0.00,meteohub,2013-04-28 18:02:00,
2013-04-28 11:22:00,63.5,36.7,30.04,SSW,196,6.0,11.0,37,0.00,,,0.00,meteohub,2013-04-28 18:22:00,
2013-04-28 11:42:00,64.4,36.9,30.07,WSW,239,6.0,11.0,36,0.00,,,0.00,meteohub,2013-04-28 18:42:00,
2013-04-28 12:02:00,64.2,36.7,30.07,SSW,195,9.0,9.0,36,0.00,,,0.00,meteohub,2013-04-28 19:02:00,
2013-04-28 12:22:00,64.8,36.5,30.04,SW,229,4.0,9.0,35,0.00,,,0.00,meteohub,2013-04-28 19:22:00,
2013-04-28 12:42:00,64.6,36.3,30.04,SSW,210,8.0,11.0,35,0.00,,,0.00,meteohub,2013-04-28 19:42:00,
2013-04-28 13:02:00,64.4,36.1,30.04,SW,230,10.0,10.0,35,0.00,,,0.00,meteohub,2013-04-28 20:02:00,
2013-04-28 13:22:00,66.0,37.6,30.01,WSW,239,5.0,11.0,35,0.00,,,0.00,meteohub,2013-04-28 20:22:00,
2013-04-28 13:42:00,66.4,37.2,30.04,SW,219,7.0,10.0,34,0.00,,,0.00,meteohub,2013-04-28 20:42:00,
2013-04-28 14:02:00,66.4,37.2,30.04,WSW,246,6.0,11.0,34,0.00,,,0.00,meteohub,2013-04-28 21:02:00,
2013-04-28 14:22:00,66.2,37.0,30.01,WSW,238,5.0,11.0,34,0.00,,,0.00,meteohub,2013-04-28 21:22:00,
2013-04-28 14:42:00,67.1,37.8,30.01,SW,219,6.0,10.0,34,0.00,,,0.00,meteohub,2013-04-28 21:42:00,
2013-04-28 15:02:00,66.6,38.1,30.01,SW,235,5.0,11.0,35,0.00,,,0.00,meteohub,2013-04-28 22:02:00,
2013-04-28 15:22:00,67.5,38.1,30.01,WSW,244,11.0,11.0,34,0.00,,,0.00,meteohub,2013-04-28 22:22:00,
2013-04-28 15:42:00,66.4,37.2,30.01,SW,225,8.0,11.0,34,0.00,,,0.00,meteohub,2013-04-28 22:42:00,
2013-04-28 16:02:00,66.2,38.5,29.99,WSW,240,11.0,11.0,36,0.00,,,0.00,meteohub,2013-04-28 23:02:00,
2013-04-28 16:22:00,65.7,37.9,29.99,West,261,5.0,11.0,36,0.00,,,0.00,meteohub,2013-04-28 23:22:00,
2013-04-28 16:42:00,66.4,37.9,29.99,SW,217,8.0,11.0,35,0.00,,,0.00,meteohub,2013-04-28 23:42:00,
2013-04-28 17:02:00,66.4,37.9,29.99,WSW,239,11.0,11.0,35,0.00,,,0.00,meteohub,2013-04-29 00:02:00,
2013-04-28 17:22:00,66.6,38.1,29.99,WSW,253,8.0,13.0,35,0.00,,,0.00,meteohub,2013-04-29 00:22:00,
2013-04-28 17:42:00,65.7,37.9,29.99,West,272,9.0,12.0,36,0.00,,,0.00,meteohub,2013-04-29 00:42:00,
2013-04-28 18:02:00,64.8,38.5,29.99,WSW,247,8.0,11.0,38,0.00,,,0.00,meteohub,2013-04-29 01:02:00,
2013-04-28 18:22:00,63.7,39.6,29.99,WSW,242,6.0,11.0,41,0.00,,,0.00,meteohub,2013-04-29 01:22:00,
2013-04-28 18:42:00,63.0,40.1,29.99,WSW,245,5.0,12.0,43,0.00,,,0.00,meteohub,2013-04-29 01:42:00,
2013-04-28 19:02:00,61.7,40.6,29.99,WSW,238,6.0,11.0,46,0.00,,,0.00,meteohub,2013-04-29 02:02:00,
2013-04-28 19:22:00,60.6,41.4,29.99,SW,228,4.0,9.0,49,0.00,,,0.00,meteohub,2013-04-29 02:22:00,
2013-04-28 19:42:00,59.7,41.5,29.99,WSW,237,5.0,9.0,51,0.00,,,0.00,meteohub,2013-04-29 02:42:00,
2013-04-28 20:02:00,59.0,42.4,29.99,SW,229,8.0,10.0,54,0.00,,,0.00,meteohub,2013-04-29 03:02:00,
2013-04-28 20:22:00,58.6,43.0,29.99,SW,224,5.0,9.0,56,0.00,,,0.00,meteohub,2013-04-29 03:22:00,
2013-04-28 20:42:00,58.5,44.2,29.99,SW,226,7.0,9.0,59,0.00,,,0.00,meteohub,2013-04-29 03:42:00,
2013-04-28 21:02:00,57.9,45.3,29.99,SW,224,6.0,8.0,63,0.00,,,0.00,meteohub,2013-04-29 04:02:00,
2013-04-28 21:22:00,57.6,46.8,29.99,SW,235,3.0,7.0,67,0.00,,,0.00,meteohub,2013-04-29 04:22:00,
2013-04-28 21:42:00,57.7,48.0,29.99,SW,225,4.0,8.0,70,0.00,,,0.00,meteohub,2013-04-29 04:42:00,
2013-04-28 22:02:00,57.6,48.2,29.99,SW,235,6.0,6.0,71,0.00,,,0.00,meteohub,2013-04-29 05:02:00,
2013-04-28 22:22:00,57.7,48.7,30.01,SW,234,4.0,5.0,72,0.00,,,0.00,meteohub,2013-04-29 05:22:00,
2013-04-28 22:42:00,57.7,48.7,30.01,SSE,161,4.0,7.0,72,0.00,,,0.00,meteohub,2013-04-29 05:42:00,
2013-04-28 23:02:00,57.9,48.9,29.99,South,176,4.0,6.0,72,0.00,,,0.00,meteohub,2013-04-29 06:02:00,
2013-04-28 23:22:00,57.9,48.6,29.99,SW,236,0.0,8.0,71,0.00,,,0.00,meteohub,2013-04-29 06:22:00,
2013-04-28 23:42:00,57.9,47.5,30.01,SW,217,3.0,6.0,68,0.00,,,0.00,meteohub,2013-04-29 06:42:00,